Weather History for KMIB - June, 2013

Change the Weather History Date:

Wednesday, June 19, 2013

  Actual Average Record
Temperature  
Mean Temperature 72 °F -  
Max Temperature 85 °F 72 °F 85 °F (2013)
Min Temperature 60 °F 51 °F 47 °F (2007)
Cooling Degree Days 8    
Growing Degree Days 22 (Base 50)    
Moisture  
Dew Point 58 °F    
Average Humidity 61    
Maximum Humidity 89    
Minimum Humidity 37    
Precipitation  
Precipitation 0.00 in - - ()
Sea Level Pressure  
Sea Level Pressure 29.86 in    
Wind  
Wind Speed 7 mph (East)    
Max Wind Speed 20 mph    
Max Gust Speed 29 mph    
Visibility 9 miles    
Events      
Averages and records for this station are not official NWS values.
T = Trace of Precipitation, MM = Missing Value Source: NWS Daily Summary

Daily Weather History Graph

Daily Weather History Graph

Search for Another Location

Airport or City:

Trip Planner

Search our weather history database for the weather conditions in past years. The results will help you decide how hot, cold, wet, or windy it might be!

Date:

Astronomy

Jun. 19, 2013 Rise Set
Actual Time 5:43 AM CDT 9:50 PM CDT
Civil Twilight 5:01 AM CDT 10:32 PM CDT
Nautical Twilight 4:02 AM CDT 11:31 PM CDT
Astronomical Twilight 2:08 AM CDT 1:26 AM CDT
Moon 5:32 PM CDT (6/19) 2:46 AM CDT (6/19)
Length of Visible Light 17h 30m
Length of Day
16h 06m
Waxing Gibbous, 80% of the Moon is Illuminated
Jun 19
Waxing Gibbous
Jun 23
Full
Jun 29
Last Quarter
Jul 8
New
Jul 15
First Quarter

Hourly Weather History & Observations

Time (CDT) Temp. Heat Index Dew Point Humidity Pressure Visibility Wind Dir Wind Speed Gust Speed Precip Events Conditions
12:55 AM 62.8 °F - 56.5 °F 80% 29.93 in 10.0 mi ESE 2.3 mph - N/A   Clear
1:55 AM 63.5 °F - 57.2 °F 80% 29.97 in 10.0 mi East 3.5 mph - N/A   Clear
2:55 AM 61.3 °F - 56.7 °F 85% 29.92 in 10.0 mi ENE 3.5 mph - N/A   Clear
3:55 AM 60.1 °F - 56.8 °F 89% 29.92 in 10.0 mi East 3.5 mph - N/A   Clear
4:55 AM 60.8 °F - 57.2 °F 88% 29.97 in 10.0 mi East 4.6 mph - N/A   Clear
5:55 AM 64.4 °F - 55.4 °F 73% 29.92 in 10.0 mi East 2.3 mph - N/A   Scattered Clouds
6:55 AM 62.6 °F - 53.6 °F 72% 29.91 in 10.0 mi East 2.3 mph - N/A   Scattered Clouds
7:55 AM 60.8 °F - 57.2 °F 88% 29.91 in 10.0 mi ENE 3.5 mph - N/A   Scattered Clouds
8:56 AM 68.0 °F - 57.2 °F 68% 29.90 in 7.0 mi East 3.5 mph - N/A   Partly Cloudy
9:58 AM 68.0 °F - 57.2 °F 68% 29.90 in 7.0 mi East 3.5 mph - N/A   Partly Cloudy
10:55 AM 78.8 °F - 59.0 °F 51% 29.90 in 7.0 mi East 9.2 mph - N/A   Scattered Clouds
11:58 AM 78.8 °F - 59.0 °F 51% 29.87 in 7.0 mi East 13.8 mph - N/A   Partly Cloudy
12:55 PM 80.6 °F 80.8 °F 57.2 °F 45% 22.98 in 7.0 mi ESE 10.4 mph - N/A   Partly Cloudy
1:55 PM 82.4 °F 82.9 °F 60.8 °F 48% 29.84 in 10.0 mi East 16.1 mph 23.0 mph N/A   Clear
2:55 PM 84.6 °F 83.9 °F 57.7 °F 40% 29.82 in 10.0 mi ESE 16.1 mph 26.5 mph N/A   Clear
3:55 PM 85.6 °F 84.5 °F 56.8 °F 37% 29.85 in 10.0 mi ESE 19.6 mph 28.8 mph N/A   Mostly Cloudy
4:55 PM 85.8 °F 85.2 °F 58.8 °F 40% 29.78 in 10.0 mi ESE 17.3 mph - N/A   Partly Cloudy
5:55 PM 84.2 °F 84.4 °F 60.8 °F 45% 29.82 in 10.0 mi SE 13.8 mph 19.6 mph N/A   Scattered Clouds
6:55 PM 85.5 °F 84.3 °F 56.1 °F 37% 29.78 in 10.0 mi SE 16.1 mph - N/A   Scattered Clouds
7:55 PM 84.4 °F 83.7 °F 57.4 °F 40% 29.77 in 10.0 mi ESE 13.8 mph - N/A   Clear
8:55 PM 81.1 °F 81.2 °F 57.4 °F 44% 29.78 in 10.0 mi ESE 9.2 mph - N/A   Clear
9:57 PM 76.6 °F - 58.1 °F 53% 29.78 in 10.0 mi East 8.1 mph - N/A   Clear
10:55 PM 73.2 °F - 60.8 °F 65% 29.80 in 10.0 mi East 10.4 mph - N/A   Clear
11:55 PM 70.3 °F - 60.6 °F 71% 29.80 in 10.0 mi East 11.5 mph - N/A   Clear